KD5NDU-15 Weather Reports


time (UTC)temp
C
wind
direction
speed
KPH
gust
KPH
rain 1hr
cm
rain 24hr
cm
rain mn
cm
humidity
%
barometer
mb
20260901131138 25 217 1.6 4.8 0.00 0.00 0.00 92 1019.4
20260901130638 24 217 1.6 0.0 0.00 0.00 0.00 94 1019.3
20260901130138 23 216 1.6 6.4 0.00 0.00 0.00 94 1019.2
20260901125638 23 214 0.0 4.8 0.00 0.00 0.00 94 1019.2
20260901125138 23 163 0.0 0.0 0.00 0.00 0.00 94 1019.2
20260901124638 22 163 0.0 0.0 0.00 0.00 0.00 95 1019.2
20260901124138 22 163 0.0 0.0 0.00 0.00 0.00 94 1019.3
20260901123638 22 163 0.0 0.0 0.00 0.00 0.00 95 1019.3
20260901123138 22 163 0.0 0.0 0.00 0.00 0.00 95 1019.2
20260901122638 22 163 0.0 0.0 0.00 0.00 0.00 95 1019.2
20260901122138 22 163 0.0 0.0 0.00 0.00 0.00 95 1019.2
20260901121638 22 163 0.0 0.0 0.00 0.00 0.00 95 1019.1
20260901121138 22 163 0.0 0.0 0.00 0.00 0.00 95 1019.0
20260901120638 21 163 0.0 0.0 0.00 0.00 0.00 95 1019.1
20260901120138 21 165 0.0 0.0 0.00 0.00 0.00 95 1019.0
20260901115638 21 165 0.0 0.0 0.00 0.00 0.00 95 1018.9
20260901115138 21 165 0.0 0.0 0.00 0.00 0.00 95 1018.8
20260901114638 21 165 0.0 0.0 0.00 0.00 0.00 95 1018.9
20260901114138 21 165 0.0 0.0 0.00 0.00 0.00 95 1018.8
20260901113638 21 165 0.0 1.6 0.00 0.00 0.00 95 1018.8
20260901113138 21 163 0.0 0.0 0.00 0.00 0.00 95 1018.7
20260901112638 21 163 0.0 0.0 0.00 0.00 0.00 95 1018.7
20260901112138 21 163 0.0 0.0 0.00 0.00 0.00 95 1018.6
20260901111638 21 163 0.0 0.0 0.00 0.00 0.00 95 1018.7
20260901111138 21 109 0.0 0.0 0.00 0.00 0.00 95 1018.5
20260901110638 21 109 0.0 0.0 0.00 0.00 0.00 94 1018.6
20260901110138 21 109 0.0 1.6 0.00 0.00 0.00 94 1018.5
20260901105639 22 108 0.0 0.0 0.00 0.00 0.00 94 1018.4
20260901105138 22 108 0.0 1.6 0.00 0.00 0.00 94 1018.4
20260901104639 22 102 0.0 0.0 0.00 0.00 0.00 94 1018.4
20260901104138 22 101 0.0 0.0 0.00 0.00 0.00 93 1018.3
20260901103639 23 101 0.0 0.0 0.00 0.00 0.00 93 1018.2
20260901103139 23 101 0.0 0.0 0.00 0.00 0.00 93 1018.2
20260901102639 23 102 0.0 0.0 0.00 0.00 0.00 93 1018.0
20260901102139 23 102 0.0 0.0 0.00 0.00 0.00 93 1018.1
20260901101639 23 104 0.0 0.0 0.00 0.00 0.00 93 1018.0
20260901101139 23 103 0.0 0.0 0.00 0.00 0.00 93 1018.0
20260901100639 23 104 0.0 0.0 0.00 0.00 0.00 93 1017.9
20260901100139 23 104 0.0 0.0 0.00 0.00 0.00 92 1018.0
20260901095639 23 103 0.0 0.0 0.00 0.00 0.00 92 1017.9
20260901095139 23 104 0.0 0.0 0.00 0.00 0.00 92 1017.9
20260901094639 23 103 0.0 0.0 0.00 0.00 0.00 91 1017.8
20260901094139 23 104 0.0 0.0 0.00 0.00 0.00 91 1017.9
20260901093639 23 104 0.0 3.2 0.00 0.00 0.00 91 1017.8
20260901093139 23 103 0.0 4.8 0.00 0.00 0.00 92 1018.0
20260901092639 23 126 0.0 3.2 0.00 0.00 0.00 92 1017.8
20260901092139 23 136 0.0 1.6 0.00 0.00 0.00 92 1017.8
20260901091639 23 136 0.0 1.6 0.00 0.00 0.00 92 1017.9
20260901091139 23 136 0.0 1.6 0.00 0.00 0.00 91 1017.7
20260901090639 23 136 0.0 0.0 0.00 0.00 0.00 91 1017.6
20260901090139 23 136 0.0 0.0 0.00 0.00 0.00 91 1017.7
20260901085639 23 136 0.0 0.0 0.00 0.00 0.00 91 1017.6
20260901085139 24 136 0.0 0.0 0.00 0.00 0.00 90 1017.6
20260901084639 24 136 0.0 0.0 0.00 0.00 0.00 90 1017.6
20260901084139 24 136 0.0 0.0 0.00 0.00 0.00 90 1017.6
20260901083639 24 136 0.0 0.0 0.00 0.00 0.00 90 1017.7
20260901083139 24 136 0.0 1.6 0.00 0.00 0.00 90 1017.6
20260901082639 24 136 0.0 1.6 0.00 0.00 0.00 90 1017.6
20260901082139 24 136 0.0 1.6 0.00 0.00 0.00 91 1017.6
20260901081639 24 136 0.0 1.6 0.00 0.00 0.00 90 1017.6
20260901081139 24 136 0.0 0.0 0.00 0.00 0.00 90 1017.6
20260901080639 24 136 0.0 0.0 0.00 0.00 0.00 90 1017.6
20260901080139 24 136 0.0 1.6 0.00 0.00 0.00 90 1017.6
20260901075639 24 138 0.0 4.8 0.00 0.00 0.00 91 1017.7
20260901075139 23 120 0.0 3.2 0.00 0.00 0.00 91 1017.6
20260901074639 23 143 0.0 3.2 0.00 0.00 0.00 92 1017.6
20260901074139 23 141 0.0 4.8 0.00 0.00 0.00 92 1017.5
20260901073639 23 147 0.0 1.6 0.00 0.00 0.00 92 1017.6
20260901073139 23 147 0.0 3.2 0.00 0.00 0.00 92 1017.6
20260901072639 23 120 0.0 0.0 0.00 0.00 0.00 92 1017.7
20260901072139 23 119 0.0 0.0 0.00 0.00 0.00 92 1017.6
20260901071639 23 113 0.0 0.0 0.00 0.00 0.00 91 1017.6
20260901071139 24 113 0.0 0.0 0.00 0.00 0.00 90 1017.5
20260901070639 24 113 0.0 0.0 0.00 0.00 0.00 90 1017.4
20260901070139 24 113 0.0 1.6 0.00 0.00 0.00 90 1017.4
20260901065639 24 113 0.0 1.6 0.00 0.00 0.00 89 1017.5
20260901065139 24 113 0.0 0.0 0.00 0.00 0.00 89 1017.5
20260901064639 25 113 0.0 0.0 0.00 0.00 0.00 88 1017.6
20260901064139 25 113 0.0 1.6 0.00 0.00 0.00 87 1017.6
20260901063639 25 113 0.0 1.6 0.00 0.00 0.00 87 1017.6
20260901063139 25 113 1.6 3.2 0.00 0.00 0.00 87 1017.7
20260901062639 25 59 1.6 3.2 0.00 0.00 0.00 87 1017.7
20260901062139 25 85 1.6 4.8 0.00 0.00 0.00 87 1017.7
20260901061639 25 115 1.6 4.8 0.00 0.00 0.00 86 1017.7
20260901061139 25 93 1.6 3.2 0.00 0.00 0.00 86 1017.6
20260901060639 25 96 1.6 4.8 0.00 0.00 0.00 86 1017.6
20260901060139 25 85 1.6 4.8 0.00 0.00 0.00 87 1017.6
20260901055639 25 98 0.0 4.8 0.00 0.00 0.00 87 1017.4
20260901055139 25 74 0.0 3.2 0.00 0.00 0.00 87 1017.4
20260901054639 25 72 0.0 0.0 0.00 0.00 0.00 87 1017.6
20260901054139 25 143 0.0 0.0 0.00 0.00 0.00 87 1017.6
20260901053639 25 143 0.0 3.2 0.00 0.00 0.00 87 1017.6
20260901053139 25 143 0.0 0.0 0.00 0.00 0.00 87 1017.6
20260901052639 25 143 0.0 1.6 0.00 0.00 0.00 86 1017.6
20260901052139 25 143 0.0 0.0 0.00 0.00 0.00 86 1017.7
20260901051639 25 143 0.0 3.2 0.00 0.00 0.00 85 1017.6
20260901051139 25 145 0.0 3.2 0.00 0.00 0.00 86 1017.7
20260901050639 25 148 0.0 1.6 0.00 0.00 0.00 85 1017.5
20260901050139 25 148 0.0 0.0 0.00 0.00 0.00 85 1017.6
20260901045639 25 148 0.0 0.0 0.00 0.00 0.00 85 1017.5
20260901045139 25 148 0.0 0.0 0.00 0.00 0.00 85 1017.4
20260901044639 26 148 0.0 0.0 0.00 0.00 0.00 84 1017.5
20260901044139 26 148 0.0 0.0 0.00 0.00 0.00 84 1017.5
20260901043639 26 148 0.0 0.0 0.00 0.00 0.00 83 1017.4
20260901043139 26 148 0.0 1.6 0.00 0.00 0.00 83 1017.4
20260901042639 26 148 0.0 1.6 0.00 0.00 0.00 82 1017.5
20260901042139 26 148 0.0 3.2 0.00 0.00 0.00 82 1017.5
20260901041639 26 161 0.0 3.2 0.00 0.00 0.00 82 1017.4
20260901041139 27 161 0.0 1.6 0.00 0.00 0.00 80 1017.6
20260901040639 27 161 0.0 1.6 0.00 0.00 0.00 80 1017.5
20260901040139 27 141 1.6 3.2 0.00 0.00 0.00 79 1017.4
20260901035639 27 167 1.6 4.8 0.00 0.00 0.00 79 1017.5
20260901035139 27 155 1.6 4.8 0.00 0.00 0.00 78 1017.5
20260901034639 27 153 1.6 3.2 0.00 0.00 0.00 78 1017.6
20260901034139 27 151 1.6 6.4 0.00 0.00 0.00 77 1017.6
20260901033639 27 150 1.6 4.8 0.00 0.00 0.00 77 1017.6
20260901033139 27 102 1.6 4.8 0.00 0.00 0.00 77 1017.6
20260901032639 27 146 1.6 4.8 0.00 0.00 0.00 77 1017.5
20260901032139 27 107 1.6 4.8 0.00 0.00 0.00 77 1017.6
20260901031639 27 106 1.6 4.8 0.00 0.00 0.00 78 1017.7
20260901031139 27 105 0.0 6.4 0.00 0.00 0.00 78 1017.6
20260901030639 27 149 0.0 4.8 0.00 0.00 0.00 78 1017.6
20260901030139 28 168 1.6 3.2 0.00 0.00 0.00 77 1017.7
20260901025639 28 168 0.0 3.2 0.00 0.00 0.00 77 1017.7
20260901025139 28 168 0.0 3.2 0.00 0.00 0.00 77 1017.6
20260901024639 28 168 0.0 1.6 0.00 0.00 0.00 76 1017.7
20260901024139 28 168 0.0 3.2 0.00 0.00 0.00 76 1017.7
20260901023639 28 170 1.6 4.8 0.00 0.00 0.00 75 1017.6
20260901023139 28 194 0.0 3.2 0.00 0.00 0.00 75 1017.5
20260901022639 28 188 0.0 1.6 0.00 0.00 0.00 74 1017.5
20260901022139 29 188 0.0 0.0 0.00 0.00 0.00 74 1017.5
20260901021639 29 188 1.6 3.2 0.00 0.00 0.00 73 1017.6
20260901021139 29 171 1.6 4.8 0.00 0.00 0.00 73 1017.5
20260901020639 29 195 1.6 4.8 0.00 0.00 0.00 73 1017.6
20260901020139 29 193 3.2 6.4 0.00 0.00 0.00 73 1017.6
20260901015639 29 198 1.6 3.2 0.00 0.00 0.00 73 1017.5
20260901015139 29 201 0.0 3.2 0.00 0.00 0.00 73 1017.4
20260901014639 29 201 0.0 3.2 0.00 0.00 0.00 73 1017.2
20260901014139 30 203 0.0 0.0 0.00 0.00 0.00 72 1017.2
20260901013639 30 203 1.6 3.2 0.00 0.00 0.00 72 1017.1
20260901013139 30 203 1.6 3.2 0.00 0.00 0.00 71 1017.1
20260901012639 30 203 0.0 4.8 0.00 0.00 0.00 71 1017.1
20260901012139 30 202 0.0 0.0 0.00 0.00 0.00 71 1017.1
20260901011639 30 202 0.0 0.0 0.00 0.00 0.00 71 1017.1
20260901011139 30 202 0.0 0.0 0.00 0.00 0.00 70 1017.1
20260901010639 30 202 0.0 0.0 0.00 0.00 0.00 69 1017.1
20260901010139 30 202 0.0 1.6 0.00 0.00 0.00 69 1017.0
20260901005639 30 202 0.0 3.2 0.00 0.00 0.00 68 1017.1
20260901005139 31 202 0.0 1.6 0.00 0.00 0.00 67 1017.0
20260901004639 31 202 0.0 1.6 0.00 0.00 0.00 67 1017.0
20260901004139 31 202 0.0 1.6 0.00 0.00 0.00 66 1017.0
20260901003639 31 202 0.0 1.6 0.00 0.00 0.00 66 1016.9
20260901003139 31 201 0.0 3.2 0.00 0.00 0.00 65 1016.8
20260901002639 31 201 1.6 4.8 0.00 0.00 0.00 64 1016.9
20260901002139 31 211 1.6 4.8 0.00 0.00 0.00 63 1016.8
20260901001639 32 210 1.6 4.8 0.00 0.00 0.00 62 1016.7
20260901001139 32 198 0.0 3.2 0.00 0.00 0.00 61 1016.8
20260901000639 32 164 1.6 3.2 0.00 0.00 0.00 60 1016.8
20260901000139 32 156 1.6 3.2 0.00 0.00 0.00 59 1016.8
20260831235639 32 155 1.6 3.2 0.00 0.00 0.00 60 1016.9
20260831235139 33 205 1.6 6.4 0.00 0.00 0.00 59 1016.7
20260831234639 33 187 0.0 3.2 0.00 0.00 0.00 59 1016.7
20260831234139 33 187 0.0 1.6 0.00 0.00 0.00 58 1016.7
20260831233639 33 187 1.6 3.2 0.00 0.00 0.00 58 1016.7
20260831233139 33 192 1.6 3.2 0.00 0.00 0.00 57 1016.7
20260831232639 34 191 1.6 4.8 0.00 0.00 0.00 58 1016.6
20260831232139 34 175 1.6 4.8 0.00 0.00 0.00 57 1016.6
20260831231639 34 145 1.6 6.4 0.00 0.00 0.00 57 1016.7
20260831231139 34 124 3.2 6.4 0.00 0.00 0.00 58 1016.7
20260831230639 34 160 3.2 6.4 0.00 0.00 0.00 57 1016.8
20260831230139 34 212 3.2 6.4 0.00 0.00 0.00 57 1016.7
20260831225639 34 154 4.8 8.0 0.00 0.00 0.00 58 1016.8
20260831225139 35 193 3.2 9.7 0.00 0.00 0.00 57 1016.7
20260831224639 35 180 1.6 6.4 0.00 0.00 0.00 58 1016.7
20260831224139 35 151 1.6 6.4 0.00 0.00 0.00 57 1016.7
20260831223639 35 88 1.6 9.7 0.00 0.00 0.00 58 1016.7
20260831223139 35 203 1.6 6.4 0.00 0.00 0.00 58 1016.7
20260831222639 35 165 3.2 6.4 0.00 0.00 0.00 58 1016.8
20260831222139 35 88 1.6 8.0 0.00 0.00 0.00 57 1016.7
20260831221639 35 183 3.2 4.8 0.00 0.00 0.00 57 1016.7
20260831221139 35 181 4.8 6.4 0.00 0.00 0.00 56 1016.8
20260831220639 35 75 3.2 8.0 0.00 0.00 0.00 57 1016.9
20260831220139 35 86 1.6 9.7 0.00 0.00 0.00 57 1016.9
20260831215639 35 159 1.6 4.8 0.00 0.00 0.00 59 1016.9
20260831215139 34 106 3.2 6.4 0.00 0.00 0.00 57 1017.0
20260831214639 35 128 3.2 8.0 0.00 0.00 0.00 58 1017.0
20260831214139 35 147 3.2 9.7 0.00 0.00 0.00 57 1017.0
20260831213639 35 224 3.2 8.0 0.00 0.00 0.00 56 1017.0
20260831213139 35 183 3.2 8.0 0.00 0.00 0.00 55 1017.0
20260831212639 35 211 3.2 6.4 0.00 0.00 0.00 54 1017.0
20260831212139 35 223 3.2 6.4 0.00 0.00 0.00 55 1017.0
20260831211640 35 251 4.8 8.0 0.00 0.00 0.00 54 1017.1
20260831211139 36 211 4.8 11.3 0.00 0.00 0.00 53 1017.3
20260831210640 36 202 4.8 11.3 0.00 0.00 0.00 53 1017.4
20260831210140 36 251 3.2 9.7 0.00 0.00 0.00 54 1017.4
20260831205640 35 206 1.6 8.0 0.00 0.00 0.00 54 1017.3
20260831205140 35 231 3.2 4.8 0.00 0.00 0.00 55 1017.4
20260831204640 35 127 3.2 4.8 0.00 0.00 0.00 55 1017.4
20260831204140 34 201 3.2 6.4 0.00 0.00 0.00 57 1017.4
20260831203640 34 191 3.2 9.7 0.00 0.00 0.00 58 1017.4
20260831203140 33 193 3.2 8.0 0.00 0.00 0.00 58 1017.3
20260831202640 33 232 1.6 6.4 0.00 0.00 0.00 58 1017.4
20260831202140 33 210 1.6 4.8 0.00 0.00 0.00 60 1017.5
20260831201640 33 209 1.6 3.2 0.00 0.00 0.00 60 1017.6
20260831201140 33 208 1.6 3.2 0.00 0.00 0.00 62 1017.6
20260831200640 33 207 1.6 4.8 0.00 0.00 0.00 60 1017.6
20260831200140 34 61 0.0 1.6 0.00 0.00 0.00 60 1017.8
20260831195640 35 61 1.6 3.2 0.00 0.00 0.00 58 1017.9
20260831195140 35 61 0.0 1.6 0.00 0.00 0.00 63 1018.0
20260831194640 35 61 0.0 3.2 0.00 0.00 0.00 62 1018.0
20260831194140 34 61 0.0 1.6 0.00 0.00 0.00 62 1018.1
20260831193640 33 62 0.0 3.2 0.00 0.00 0.00 61 1018.1
20260831193140 33 60 0.0 3.2 0.00 0.00 0.00 61 1018.2
20260831192640 33 60 1.6 3.2 0.00 0.00 0.00 63 1018.1
20260831192140 33 61 1.6 3.2 0.00 0.00 0.00 63 1018.2
20260831191640 33 81 1.6 4.8 0.00 0.00 0.00 63 1018.2
20260831191140 33 153 1.6 6.4 0.00 0.00 0.00 63 1018.3
20260831190640 33 154 3.2 4.8 0.00 0.00 0.00 63 1018.3
20260831190140 33 181 1.6 6.4 0.00 0.00 0.00 63 1018.3
20260831185640 33 190 1.6 4.8 0.00 0.00 0.00 64 1018.4
20260831185140 33 167 1.6 6.4 0.00 0.00 0.00 64 1018.3
20260831184640 33 149 3.2 4.8 0.00 0.00 0.00 64 1018.5
20260831184140 33 162 1.6 6.4 0.00 0.00 0.00 63 1018.4
20260831183640 33 210 0.0 4.8 0.00 0.00 0.00 63 1018.6
20260831183140 33 190 0.0 3.2 0.00 0.00 0.00 64 1018.7
20260831182640 33 193 1.6 3.2 0.00 0.00 0.00 63 1018.7
20260831182140 33 193 1.6 3.2 0.00 0.00 0.00 64 1018.7
20260831181640 33 193 3.2 4.8 0.00 0.00 0.00 63 1018.8
20260831181140 33 207 3.2 8.0 0.00 0.00 0.00 63 1018.9
20260831180640 33 181 4.8 6.4 0.00 0.00 0.00 62 1019.0
20260831180140 33 182 6.4 11.3 0.00 0.00 0.00 62 1019.1
20260831175640 33 176 4.8 12.9 0.00 0.00 0.00 62 1019.1
20260831175140 33 192 3.2 11.3 0.00 0.00 0.00 63 1019.2
20260831174640 33 293 4.8 8.0 0.00 0.00 0.00 64 1019.4
20260831174140 33 262 6.4 9.7 0.00 0.00 0.00 66 1019.3
20260831173640 33 250 6.4 17.7 0.00 0.00 0.00 63 1019.4
20260831173140 34 236 4.8 12.9 0.00 0.00 0.00 62 1019.6
20260831172640 33 280 4.8 9.7 0.00 0.00 0.00 65 1019.5
20260831172140 33 194 3.2 9.7 0.00 0.00 0.00 64 1019.5
20260831171640 32 176 3.2 6.4 0.00 0.00 0.00 66 1019.6
20260831171140 32 152 3.2 6.4 0.00 0.00 0.00 66 1019.6
20260831170640 32 212 1.6 8.0 0.00 0.00 0.00 66 1019.8
20260831170140 32 245 1.6 3.2 0.00 0.00 0.00 67 1019.9
20260831165640 32 246 1.6 4.8 0.00 0.00 0.00 66 1020.0
20260831165140 32 248 0.0 4.8 0.00 0.00 0.00 67 1020.0
20260831164640 32 249 0.0 3.2 0.00 0.00 0.00 68 1020.0
20260831164140 32 249 1.6 3.2 0.00 0.00 0.00 70 1020.0
20260831163640 32 205 1.6 3.2 0.00 0.00 0.00 69 1020.1
20260831163140 32 206 3.2 6.4 0.00 0.00 0.00 70 1020.1
20260831162640 32 174 4.8 8.0 0.00 0.00 0.00 69 1020.1
20260831162140 32 234 4.8 9.7 0.00 0.00 0.00 69 1020.2
20260831161640 32 256 4.8 12.9 0.00 0.00 0.00 68 1020.1
20260831161140 32 186 6.4 11.3 0.00 0.00 0.00 67 1020.1
20260831160640 32 245 6.4 14.5 0.00 0.00 0.00 67 1020.2
20260831160140 32 168 6.4 14.5 0.00 0.00 0.00 66 1020.2
20260831155640 32 214 6.4 12.9 0.00 0.00 0.00 67 1020.2
20260831155140 32 226 4.8 12.9 0.00 0.00 0.00 69 1020.3
20260831154640 32 226 4.8 8.0 0.00 0.00 0.00 70 1020.2
20260831154140 32 251 4.8 9.7 0.00 0.00 0.00 69 1020.3
20260831153640 32 252 4.8 12.9 0.00 0.00 0.00 69 1020.3
20260831153140 32 226 3.2 8.0 0.00 0.00 0.00 68 1020.1
20260831152640 32 229 1.6 6.4 0.00 0.00 0.00 69 1020.2
20260831152140 32 262 3.2 8.0 0.00 0.00 0.00 70 1020.1
20260831151640 31 254 4.8 11.3 0.00 0.00 0.00 72 1020.1
20260831151140 31 214 3.2 9.7 0.00 0.00 0.00 71 1020.0
20260831150640 31 247 3.2 8.0 0.00 0.00 0.00 72 1020.1
20260831150140 31 202 3.2 6.4 0.00 0.00 0.00 74 1020.0
20260831145640 31 172 4.8 11.3 0.00 0.00 0.00 74 1020.1
20260831145140 31 200 3.2 9.7 0.00 0.00 0.00 73 1020.2
20260831144640 31 233 1.6 9.7 0.00 0.00 0.00 73 1020.0
20260831144140 31 278 1.6 3.2 0.00 0.00 0.00 75 1020.0
20260831143640 31 278 1.6 4.8 0.00 0.00 0.00 75 1019.8
20260831143140 30 288 1.6 3.2 0.00 0.00 0.00 77 1019.8
20260831142640 30 285 1.6 3.2 0.00 0.00 0.00 78 1019.8
20260831142140 30 259 1.6 4.8 0.00 0.00 0.00 78 1019.9
20260831141640 29 242 1.6 6.4 0.00 0.00 0.00 79 1019.9
20260831141140 29 219 3.2 6.4 0.00 0.00 0.00 81 1019.8
20260831140640 28 205 3.2 6.4 0.00 0.00 0.00 81 1019.9
20260831140140 28 207 1.6 6.4 0.00 0.00 0.00 81 1019.9
20260831135640 28 211 3.2 4.8 0.00 0.00 0.00 82 1019.8
20260831135140 28 208 3.2 6.4 0.00 0.00 0.00 81 1019.8
20260831134640 27 193 3.2 4.8 0.00 0.00 0.00 83 1019.9
20260831134140 27 199 3.2 4.8 0.00 0.00 0.00 83 1019.8
20260831133640 27 174 3.2 6.4 0.00 0.00 0.00 84 1019.7
20260831133140 27 188 3.2 6.4 0.00 0.00 0.00 85 1019.7
20260831132640 26 184 1.6 4.8 0.00 0.00 0.00 85 1019.8
20260831132140 26 184 1.6 3.2 0.00 0.00 0.00 86 1019.8
20260831131640 26 179 1.6 4.8 0.00 0.00 0.00 87 1019.6